sat.trackr.live / text

‹ back to catalog

STARLINK-36884

NORAD 68026 · 2026-040M

PAYLOAD ACTIVE UNKNOWN

§ Identity

Operator
Country
US
Launch date
2026-03-01
Launch site
AFWTR
Launch vehicle
Mass (kg)
RCS (m²)

Purposes: comms

External: N2YO · Heavens-Above · Gunter

§ Orbital elements

Epoch: 2026-09-18T17:13:29.639424Z

Period
93.91 min
Inclination
97.2823°
Eccentricity
0.0002822
Mean motion
15.33459632 rev/d
Perigee alt
463.6 km
Apogee alt
467.4 km
Semi-major
6,843.6 km
B*
6.3040e-4
RAAN
209.0683°
Arg perigee
69.4393°
Mean anomaly
290.7152°
Rev number
3,104

§ Raw data

STARLINK-368841 68026U 26040M   26261.71770416  .00020343  00000+0  63040-3 0  99912 68026  97.2823 209.0683 0002822  69.4393 290.7152 15.33459632 31046

JSON: /api/v1/satellites/68026 · /tle

For live sub-satellite position, see the globe view (requires WebGL).

§ Visibility from observer

Set your observer location to see the next 7 days of passes ≥ 10°. The values pass through the URL so the page stays shareable.

No JS? Fill the form by hand. The geolocation button needs JavaScript.